Time,TemperatureF,DewpointF,PressureIn,WindDirection,WindDirectionDegrees,WindSpeedMPH,WindSpeedGustMPH,Humidity,HourlyPrecipIn,Conditions,Clouds,dailyrainin,SoftwareType,DateUTC
2013-01-22 00:10:00,26.8,25.6,29.74,NNW,338,7.0,11.0,95,0.02,,SKC,0.00,VWS V13.01,2013-01-22 05:10:00,
2013-01-22 00:20:00,26.8,25.6,29.73,NNW,338,6.0,10.0,95,0.03,,SKC,0.01,VWS V13.01,2013-01-22 05:20:00,
2013-01-22 00:30:00,26.7,25.5,29.74,NNW,338,7.0,10.0,95,0.02,,SKC,0.01,VWS V13.01,2013-01-22 05:30:00,
2013-01-22 00:40:00,26.6,25.4,29.74,NNW,338,7.0,11.0,95,0.03,,SKC,0.02,VWS V13.01,2013-01-22 05:40:00,
2013-01-22 00:50:00,26.4,25.2,29.73,NNW,338,5.0,8.0,95,0.03,,SKC,0.02,VWS V13.01,2013-01-22 05:50:00,
2013-01-22 01:00:00,26.2,25.0,29.74,NNW,338,5.0,7.0,95,0.03,,SKC,0.03,VWS V13.01,2013-01-22 06:00:00,
2013-01-22 01:20:00,26.2,25.0,29.74,North,0,7.0,11.0,95,0.04,,SKC,0.04,VWS V13.01,2013-01-22 06:20:00,
2013-01-22 01:30:00,26.2,25.0,29.74,North,0,8.0,13.0,95,0.04,,SKC,0.05,VWS V13.01,2013-01-22 06:30:00,
2013-01-22 01:40:00,25.6,24.4,29.74,NNW,338,8.0,13.0,95,0.04,,SKC,0.05,VWS V13.01,2013-01-22 06:40:00,
2013-01-22 01:50:00,25.4,24.2,29.74,NNW,338,7.0,12.0,95,0.04,,SKC,0.06,VWS V13.01,2013-01-22 06:50:00,
2013-01-22 02:00:00,25.2,24.0,29.74,NNW,338,3.0,9.0,95,0.04,,SKC,0.06,VWS V13.01,2013-01-22 07:00:00,
2013-01-22 02:10:00,25.1,23.9,29.73,NNW,338,2.0,4.0,95,0.03,,SKC,0.06,VWS V13.01,2013-01-22 07:10:00,
2013-01-22 02:20:00,25.0,23.8,29.74,NNW,338,2.0,3.0,95,0.04,,SKC,0.07,VWS V13.01,2013-01-22 07:20:00,
2013-01-22 02:30:00,24.9,23.7,29.74,NNW,338,3.0,4.0,95,0.03,,SKC,0.07,VWS V13.01,2013-01-22 07:30:00,
2013-01-22 02:40:00,24.8,23.6,29.74,NNW,338,2.0,3.0,95,0.02,,SKC,0.07,VWS V13.01,2013-01-22 07:40:00,
2013-01-22 02:50:00,24.6,23.4,29.73,NNW,338,1.0,3.0,95,0.02,,SKC,0.07,VWS V13.01,2013-01-22 07:50:00,
2013-01-22 03:00:00,24.3,22.8,29.73,NNW,338,2.0,3.0,94,0.01,,SKC,0.07,VWS V13.01,2013-01-22 08:00:00,
2013-01-22 03:10:00,23.7,22.2,29.73,NNW,338,2.0,4.0,94,0.02,,SKC,0.08,VWS V13.01,2013-01-22 08:10:00,
2013-01-22 03:20:00,23.4,21.9,29.73,NNW,338,2.0,4.0,94,0.02,,SKC,0.08,VWS V13.01,2013-01-22 08:20:00,
2013-01-22 03:30:00,23.2,21.7,29.72,NNW,338,2.0,4.0,94,0.01,,SKC,0.08,VWS V13.01,2013-01-22 08:30:00,
2013-01-22 03:40:00,23.6,22.4,29.73,NNW,338,4.0,8.0,95,0.01,,SKC,0.08,VWS V13.01,2013-01-22 08:40:00,
2013-01-22 03:50:00,24.6,23.4,29.73,WNW,292,10.0,17.0,95,0.01,,SKC,0.08,VWS V13.01,2013-01-22 08:50:00,
2013-01-22 04:00:00,24.7,23.0,29.74,WNW,292,11.0,19.0,93,0.01,,SKC,0.08,VWS V13.01,2013-01-22 09:00:00,
2013-01-22 04:10:00,24.7,22.7,29.74,WNW,292,12.0,21.0,92,0.01,,SKC,0.08,VWS V13.01,2013-01-22 09:10:00,
2013-01-22 04:20:00,24.4,21.9,29.74,NW,315,13.0,20.0,90,0.00,,SKC,0.08,VWS V13.01,2013-01-22 09:20:00,
2013-01-22 04:40:00,24.4,21.9,29.74,NW,315,12.0,18.0,90,0.00,,SKC,0.08,VWS V13.01,2013-01-22 09:40:00,
2013-01-22 04:50:00,24.5,22.0,29.74,NW,315,12.0,21.0,90,0.00,,SKC,0.08,VWS V13.01,2013-01-22 09:50:00,
2013-01-22 05:00:00,24.3,21.5,29.74,NW,315,12.0,21.0,89,0.00,,SKC,0.08,VWS V13.01,2013-01-22 10:00:00,
2013-01-22 05:10:00,24.1,21.3,29.75,NW,315,12.0,18.0,89,0.00,,SKC,0.08,VWS V13.01,2013-01-22 10:10:00,
2013-01-22 05:20:00,23.8,21.0,29.76,NW,315,12.0,18.0,89,0.00,,SKC,0.08,VWS V13.01,2013-01-22 10:20:00,
2013-01-22 05:30:00,23.6,20.6,29.76,NW,315,15.0,24.0,88,0.00,,SKC,0.08,VWS V13.01,2013-01-22 10:30:00,
2013-01-22 05:40:00,23.4,20.1,29.76,NW,315,14.0,22.0,87,0.00,,SKC,0.08,VWS V13.01,2013-01-22 10:40:00,
2013-01-22 05:50:00,23.2,19.9,29.77,NW,315,16.0,27.0,87,0.00,,SKC,0.08,VWS V13.01,2013-01-22 10:50:00,
2013-01-22 06:00:00,22.7,19.1,29.77,NW,315,17.0,25.0,86,0.00,,SKC,0.08,VWS V13.01,2013-01-22 11:00:00,
2013-01-22 06:10:00,22.2,18.7,29.78,NW,315,19.0,28.0,86,0.00,,SKC,0.08,VWS V13.01,2013-01-22 11:10:00,
2013-01-22 06:20:00,21.9,17.8,29.78,NW,315,19.0,27.0,84,0.00,,SKC,0.08,VWS V13.01,2013-01-22 11:20:00,
2013-01-22 06:30:00,22.0,17.9,29.80,NW,315,16.0,24.0,84,0.00,,SKC,0.08,VWS V13.01,2013-01-22 11:30:00,
2013-01-22 06:40:00,21.7,17.3,29.80,NW,315,18.0,32.0,83,0.00,,SKC,0.08,VWS V13.01,2013-01-22 11:40:00,
2013-01-22 06:50:00,21.3,16.7,29.81,NW,315,20.0,30.0,82,0.00,,SKC,0.08,VWS V13.01,2013-01-22 11:50:00,
2013-01-22 07:00:00,21.1,16.5,29.81,NW,315,19.0,33.0,82,0.00,,SKC,0.08,VWS V13.01,2013-01-22 12:00:00,
2013-01-22 07:10:00,20.8,16.2,29.81,NW,315,20.0,33.0,82,0.00,,SKC,0.08,VWS V13.01,2013-01-22 12:10:00,
2013-01-22 07:20:00,20.6,15.1,29.81,NW,315,21.0,33.0,79,0.00,,SKC,0.08,VWS V13.01,2013-01-22 12:20:00,
2013-01-22 07:30:00,20.3,15.4,29.82,NW,315,21.0,34.0,81,0.00,,SKC,0.08,VWS V13.01,2013-01-22 12:30:00,
2013-01-22 07:40:00,20.1,14.9,29.82,NW,315,21.0,33.0,80,0.00,,SKC,0.08,VWS V13.01,2013-01-22 12:40:00,
2013-01-22 07:50:00,20.3,15.1,29.83,NW,315,23.0,40.0,80,0.00,,SKC,0.08,VWS V13.01,2013-01-22 12:50:00,
2013-01-22 08:00:00,20.1,14.4,29.84,NW,315,25.0,38.0,78,0.00,,SKC,0.08,VWS V13.01,2013-01-22 13:00:00,
2013-01-22 08:10:00,20.4,14.1,29.84,NW,315,25.0,39.0,76,0.00,,SKC,0.08,VWS V13.01,2013-01-22 13:10:00,
2013-01-22 08:20:00,20.7,13.1,29.85,NW,315,25.0,38.0,72,0.00,,SKC,0.08,VWS V13.01,2013-01-22 13:20:00,
2013-01-22 08:40:00,21.2,12.6,29.86,NW,315,25.0,39.0,69,0.00,,SKC,0.08,VWS V13.01,2013-01-22 13:40:00,
2013-01-22 08:50:00,21.4,12.5,29.86,NW,315,25.0,35.0,68,0.00,,SKC,0.08,VWS V13.01,2013-01-22 13:50:00,
2013-01-22 09:00:00,21.6,11.7,29.87,NW,315,23.0,37.0,65,0.00,,SKC,0.08,VWS V13.01,2013-01-22 14:00:00,
2013-01-22 09:10:00,21.8,11.9,29.87,NW,315,23.0,33.0,65,0.00,,SKC,0.08,VWS V13.01,2013-01-22 14:10:00,
2013-01-22 09:20:00,22.2,11.5,29.87,NW,315,26.0,40.0,63,0.00,,SKC,0.08,VWS V13.01,2013-01-22 14:20:00,
2013-01-22 09:30:00,22.2,10.8,29.87,NW,315,25.0,39.0,61,0.00,,SKC,0.08,VWS V13.01,2013-01-22 14:30:00,
2013-01-22 09:40:00,22.8,11.0,29.87,NW,315,21.0,34.0,60,0.00,,SKC,0.08,VWS V13.01,2013-01-22 14:40:00,
2013-01-22 09:50:00,23.1,9.8,29.88,NW,315,23.0,36.0,56,0.00,,SKC,0.08,VWS V13.01,2013-01-22 14:50:00,
2013-01-22 10:00:00,23.5,10.1,29.88,NW,315,21.0,34.0,56,0.00,,SKC,0.08,VWS V13.01,2013-01-22 15:00:00,
2013-01-22 10:10:00,23.3,8.3,29.89,NW,315,25.0,40.0,52,0.00,,SKC,0.08,VWS V13.01,2013-01-22 15:10:00,
2013-01-22 10:30:00,23.9,7.5,29.89,WNW,292,24.0,38.0,49,0.00,,SKC,0.08,VWS V13.01,2013-01-22 15:30:00,
2013-01-22 10:40:00,23.7,6.9,29.89,NW,315,24.0,36.0,48,0.00,,SKC,0.08,VWS V13.01,2013-01-22 15:40:00,
2013-01-22 10:50:00,24.2,6.9,29.89,NW,315,20.0,34.0,47,0.00,,SKC,0.08,VWS V13.01,2013-01-22 15:50:00,
2013-01-22 11:00:00,25.0,8.6,29.89,NW,315,20.0,33.0,49,0.00,,SKC,0.08,VWS V13.01,2013-01-22 16:00:00,
2013-01-22 11:10:00,25.2,7.8,29.89,WNW,292,20.0,32.0,47,0.00,,SKC,0.08,VWS V13.01,2013-01-22 16:10:00,
2013-01-22 11:20:00,25.0,7.2,29.89,NW,315,19.0,28.0,46,0.00,,SKC,0.08,VWS V13.01,2013-01-22 16:20:00,
2013-01-22 11:30:00,25.0,8.1,29.89,WNW,292,20.0,32.0,48,0.00,,SKC,0.08,VWS V13.01,2013-01-22 16:30:00,
2013-01-22 11:40:00,24.4,8.0,29.89,WNW,292,17.0,30.0,49,0.00,,SKC,0.08,VWS V13.01,2013-01-22 16:40:00,
2013-01-22 11:50:00,25.9,8.9,29.89,WNW,292,16.0,30.0,48,0.00,,SKC,0.08,VWS V13.01,2013-01-22 16:50:00,
2013-01-22 12:00:00,25.3,9.3,29.89,WNW,292,15.0,29.0,50,0.00,,SKC,0.08,VWS V13.01,2013-01-22 17:00:00,
2013-01-22 12:10:00,24.3,9.2,29.88,WNW,292,14.0,26.0,52,0.00,,SKC,0.08,VWS V13.01,2013-01-22 17:10:00,
2013-01-22 12:20:00,24.2,9.6,29.88,West,270,14.0,27.0,53,0.00,,SKC,0.08,VWS V13.01,2013-01-22 17:20:00,
2013-01-22 12:30:00,25.7,8.7,29.88,West,270,16.0,28.0,48,0.00,,SKC,0.08,VWS V13.01,2013-01-22 17:30:00,
2013-01-22 12:40:00,25.0,8.6,29.87,WNW,292,17.0,26.0,49,0.00,,SKC,0.08,VWS V13.01,2013-01-22 17:40:00,
2013-01-22 12:50:00,26.0,8.6,29.87,WNW,292,18.0,29.0,47,0.00,,SKC,0.08,VWS V13.01,2013-01-22 17:50:00,
2013-01-22 13:00:00,25.6,9.1,29.87,West,270,18.0,27.0,49,0.00,,SKC,0.08,VWS V13.01,2013-01-22 18:00:00,
2013-01-22 13:10:00,23.3,7.0,29.87,West,270,15.0,26.0,49,0.00,,SKC,0.08,VWS V13.01,2013-01-22 18:10:00,
2013-01-22 13:20:00,22.5,8.0,29.87,West,270,16.0,27.0,53,0.00,,SKC,0.08,VWS V13.01,2013-01-22 18:20:00,
2013-01-22 13:40:00,23.8,8.3,29.87,WNW,292,15.0,25.0,51,0.00,,SKC,0.08,VWS V13.01,2013-01-22 18:40:00,
2013-01-22 13:50:00,24.7,8.3,29.88,WNW,292,17.0,29.0,49,0.00,,SKC,0.08,VWS V13.01,2013-01-22 18:50:00,
2013-01-22 14:00:00,25.6,8.6,29.88,West,270,18.0,31.0,48,0.00,,SKC,0.08,VWS V13.01,2013-01-22 19:00:00,
2013-01-22 14:10:00,24.3,7.9,29.88,West,270,19.0,29.0,49,0.00,,SKC,0.08,VWS V13.01,2013-01-22 19:10:00,
2013-01-22 14:20:00,25.3,8.4,29.88,West,270,15.0,27.0,48,0.00,,SKC,0.08,VWS V13.01,2013-01-22 19:20:00,
2013-01-22 14:30:00,26.0,8.6,29.89,WNW,292,16.0,25.0,47,0.00,,SKC,0.08,VWS V13.01,2013-01-22 19:30:00,
2013-01-22 14:40:00,24.5,7.2,29.89,WNW,292,17.0,30.0,47,0.00,,SKC,0.08,VWS V13.01,2013-01-22 19:40:00,
2013-01-22 14:50:00,23.2,6.4,29.89,WNW,292,16.0,29.0,48,0.00,,SKC,0.08,VWS V13.01,2013-01-22 19:50:00,
2013-01-22 15:00:00,22.6,6.3,29.89,NW,315,14.0,22.0,49,0.00,,SKC,0.08,VWS V13.01,2013-01-22 20:00:00,
2013-01-22 15:10:00,22.1,5.9,29.89,NW,315,15.0,24.0,49,0.00,,SKC,0.08,VWS V13.01,2013-01-22 20:10:00,
2013-01-22 15:20:00,21.8,5.6,29.90,NW,315,16.0,27.0,49,0.00,,SKC,0.08,VWS V13.01,2013-01-22 20:20:00,
2013-01-22 15:30:00,22.2,6.8,29.90,WNW,292,12.0,24.0,51,0.00,,SKC,0.08,VWS V13.01,2013-01-22 20:30:00,
2013-01-22 15:40:00,22.5,6.2,29.90,NW,315,16.0,30.0,49,0.00,,SKC,0.08,VWS V13.01,2013-01-22 20:40:00,
2013-01-22 15:50:00,22.0,6.2,29.91,WNW,292,15.0,23.0,50,0.00,,SKC,0.08,VWS V13.01,2013-01-22 20:50:00,
2013-01-22 16:00:00,21.6,5.4,29.91,WNW,292,15.0,25.0,49,0.00,,SKC,0.08,VWS V13.01,2013-01-22 21:00:00,
2013-01-22 16:10:00,21.1,5.4,29.91,NW,315,16.0,27.0,50,0.00,,SKC,0.08,VWS V13.01,2013-01-22 21:10:00,
2013-01-22 16:20:00,21.3,5.1,29.92,WNW,292,15.0,24.0,49,0.00,,SKC,0.08,VWS V13.01,2013-01-22 21:20:00,
2013-01-22 16:30:00,21.0,3.5,29.92,WNW,292,16.0,25.0,46,0.00,,SKC,0.08,VWS V13.01,2013-01-22 21:30:00,
2013-01-22 16:50:00,20.2,3.2,29.93,NW,315,12.0,22.0,47,0.00,,SKC,0.08,VWS V13.01,2013-01-22 21:50:00,
2013-01-22 17:00:00,19.8,2.8,29.94,NNW,338,13.0,21.0,47,0.00,,SKC,0.08,VWS V13.01,2013-01-22 22:00:00,
2013-01-22 17:10:00,19.7,3.2,29.94,NW,315,13.0,21.0,48,0.00,,SKC,0.08,VWS V13.01,2013-01-22 22:10:00,
2013-01-22 17:20:00,19.7,3.2,29.95,NW,315,13.0,24.0,48,0.00,,SKC,0.08,VWS V13.01,2013-01-22 22:20:00,
2013-01-22 17:30:00,19.7,3.2,29.96,NW,315,14.0,24.0,48,0.00,,SKC,0.08,VWS V13.01,2013-01-22 22:30:00,
2013-01-22 17:40:00,19.8,3.3,29.97,NW,315,14.0,24.0,48,0.00,,SKC,0.08,VWS V13.01,2013-01-22 22:40:00,
2013-01-22 17:50:00,19.9,3.8,29.97,NW,315,14.0,22.0,49,0.00,,SKC,0.08,VWS V13.01,2013-01-22 22:50:00,
2013-01-22 18:10:00,20.0,3.5,29.98,NW,315,18.0,27.0,48,0.00,,SKC,0.08,VWS V13.01,2013-01-22 23:10:00,
2013-01-22 18:20:00,19.9,2.5,29.99,NW,315,19.0,27.0,46,0.00,,SKC,0.08,VWS V13.01,2013-01-22 23:20:00,
2013-01-22 18:30:00,19.6,2.7,29.99,NNW,338,17.0,26.0,47,0.00,,SKC,0.08,VWS V13.01,2013-01-22 23:30:00,
2013-01-22 18:40:00,19.5,2.6,30.00,NW,315,17.0,29.0,47,0.00,,SKC,0.08,VWS V13.01,2013-01-22 23:40:00,
2013-01-22 18:50:00,19.1,3.1,30.00,NNW,338,17.0,30.0,49,0.00,,SKC,0.08,VWS V13.01,2013-01-22 23:50:00,
2013-01-22 19:00:00,19.1,3.1,30.00,NNW,338,18.0,26.0,49,0.00,,SKC,0.08,VWS V13.01,2013-01-23 00:00:00,
2013-01-22 19:10:00,19.1,3.1,30.01,NW,315,16.0,24.0,49,0.00,,SKC,0.08,VWS V13.01,2013-01-23 00:10:00,
2013-01-22 19:20:00,19.2,4.1,30.01,NW,315,15.0,26.0,51,0.00,,SKC,0.08,VWS V13.01,2013-01-23 00:20:00,
2013-01-22 19:30:00,19.3,4.1,30.01,NW,315,16.0,27.0,51,0.00,,SKC,0.08,VWS V13.01,2013-01-23 00:30:00,
2013-01-22 19:40:00,19.1,3.1,30.01,NNW,338,17.0,27.0,49,0.00,,SKC,0.08,VWS V13.01,2013-01-23 00:40:00,
2013-01-22 19:50:00,18.9,2.5,30.02,NW,315,17.0,28.0,48,0.00,,SKC,0.08,VWS V13.01,2013-01-23 00:50:00,
2013-01-22 20:00:00,18.8,2.4,30.02,NW,315,17.0,26.0,48,0.00,,SKC,0.08,VWS V13.01,2013-01-23 01:00:00,
2013-01-22 20:10:00,18.7,3.2,30.02,NW,315,15.0,23.0,50,0.00,,SKC,0.08,VWS V13.01,2013-01-23 01:10:00,
2013-01-22 20:20:00,18.6,3.5,30.02,NW,315,17.0,24.0,51,0.00,,SKC,0.08,VWS V13.01,2013-01-23 01:20:00,
2013-01-22 20:30:00,18.7,3.2,30.03,NW,315,19.0,27.0,50,0.00,,SKC,0.08,VWS V13.01,2013-01-23 01:30:00,
2013-01-22 20:40:00,18.6,3.1,30.03,NNW,338,16.0,24.0,50,0.00,,SKC,0.08,VWS V13.01,2013-01-23 01:40:00,
2013-01-22 20:50:00,18.5,3.4,30.03,NW,315,14.0,25.0,51,0.00,,SKC,0.08,VWS V13.01,2013-01-23 01:50:00,
2013-01-22 21:00:00,18.3,3.6,30.03,NNW,338,16.0,27.0,52,0.00,,SKC,0.08,VWS V13.01,2013-01-23 02:00:00,
2013-01-22 21:10:00,18.2,4.0,30.04,NNW,338,18.0,28.0,53,0.00,,SKC,0.08,VWS V13.01,2013-01-23 02:10:00,
2013-01-22 21:20:00,18.1,4.7,30.05,NW,315,16.0,25.0,55,0.00,,SKC,0.08,VWS V13.01,2013-01-23 02:20:00,
2013-01-22 21:30:00,17.8,4.0,30.05,NNW,338,17.0,27.0,54,0.00,,SKC,0.08,VWS V13.01,2013-01-23 02:30:00,
2013-01-22 21:40:00,17.8,4.4,30.05,NW,315,16.0,24.0,55,0.00,,SKC,0.08,VWS V13.01,2013-01-23 02:40:00,
2013-01-22 21:50:00,17.8,4.4,30.05,NW,315,15.0,26.0,55,0.00,,SKC,0.08,VWS V13.01,2013-01-23 02:50:00,
2013-01-22 22:00:00,17.6,3.4,30.05,NW,315,16.0,26.0,53,0.00,,SKC,0.08,VWS V13.01,2013-01-23 03:00:00,
2013-01-22 22:10:00,17.4,3.6,30.05,NNW,338,17.0,25.0,54,0.00,,SKC,0.08,VWS V13.01,2013-01-23 03:10:00,
2013-01-22 22:20:00,17.3,3.1,30.06,NNW,338,16.0,24.0,53,0.00,,SKC,0.08,VWS V13.01,2013-01-23 03:20:00,
2013-01-22 22:30:00,17.2,3.4,30.06,NNW,338,17.0,30.0,54,0.00,,SKC,0.08,VWS V13.01,2013-01-23 03:30:00,
2013-01-22 22:40:00,17.2,4.2,30.06,NW,315,15.0,29.0,56,0.00,,SKC,0.08,VWS V13.01,2013-01-23 03:40:00,
2013-01-22 22:50:00,17.1,3.7,30.06,NW,315,13.0,22.0,55,0.00,,SKC,0.08,VWS V13.01,2013-01-23 03:50:00,
2013-01-22 23:00:00,17.0,3.6,30.06,NW,315,14.0,23.0,55,0.00,,SKC,0.08,VWS V13.01,2013-01-23 04:00:00,
2013-01-22 23:10:00,17.1,4.5,30.06,WNW,292,17.0,24.0,57,0.00,,SKC,0.08,VWS V13.01,2013-01-23 04:10:00,
2013-01-22 23:20:00,17.0,4.4,30.06,NW,315,13.0,22.0,57,0.00,,SKC,0.08,VWS V13.01,2013-01-23 04:20:00,
2013-01-22 23:30:00,16.8,3.5,30.07,WNW,292,15.0,23.0,55,0.00,,SKC,0.08,VWS V13.01,2013-01-23 04:30:00,
2013-01-22 23:40:00,16.6,2.9,30.06,WNW,292,15.0,26.0,54,0.00,,SKC,0.08,VWS V13.01,2013-01-23 04:40:00,
2013-01-22 23:50:00,16.3,2.6,30.06,NW,315,17.0,24.0,54,0.00,,SKC,0.08,VWS V13.01,2013-01-23 04:50:00,